PICOSAT 1&2 (TETHERED)

Satellite information

Favourite Embed

Satellite Type and Status

PAYLOADIN ORBIT

Key statistics

Satellite PICOSAT 1&2 (TETHERED) at a glance.

Uptime

9291

Days in orbit

Revolutions

≈ 14.5

Per day

Orbit

SSO

Sun Synchronous Orbit

Inclination

100.2

Latest

Satellite identification and parameters

Extended collection of information and parameters for PICOSAT 1&2 (TETHERED).

Object identification

Identified? True

Debris? False

Object name: PICOSAT 1&2 (TETHERED)

International designator: 2000-004H

Object number (NORAD): 26080

Object ID (CCSDS): 26080

Country: UNITED STATES OF AMERICA (US)

Current information (Y/N): Y

RCS size: SMALL

Orbital parameters

Period: 99.518 minutes

Inclination: 100.2016 deg

SMA: 7113.698 km

Apoapsis: 757.362 km

Periapsis: 713.765 km

RAAN: 144.7474 deg

Eccentricy: 0.0030643

Argument of periapsis: 81.9688 deg

Mean anomaly: 278.4974 deg

Mean motion: 14.4697023 rev/day

Mean motion (dot): 0.00000644 rev/day2

B* drag term: 0.00019306 1/REarth

Two-line elements (TLE)

Creation date: July 4, 2025, 6:39 p.m.

Reference frame: TEME

Reference center: EARTH

Epoch: July 4, 2025, 7:48 a.m. UTC

TLE line 0: 0 PICOSAT 1&2 (TETHERED)

TLE line 1: 1 26080U 00004H 25185.32565471 .00000644 00000-0 19306-3 0 9990

TLE line 2: 2 26080 100.2016 144.7474 0030643 81.9688 278.4974 14.46970230336598

Live tracking on map

Real-time ground track for satellite PICOSAT 1&2 (TETHERED).

In-orbit conjunctions

A list of the most updated potential collisions computed for object PICOSAT 1&2 (TETHERED).

Target Orbit TCA Probability of collision Miss distance Type
CZ-6A DEB LEO 2025-06-06 20:38:04 0.0002777734 472.0 (m) DEBRIS
NOAA 16 DEB SSO 2025-05-23 01:27:10 0.0002612725 488.0 (m) DEBRIS
DMSP 5D-2 F13 DEB SSO 2025-03-14 02:29:23 0.0001641951 236.0 (m) DEBRIS
NOAA 16 DEB SSO 2025-02-15 13:47:07 0.0002719411 198.0 (m) DEBRIS
FENGYUN 1C DEB SSO 2025-02-10 04:26:57 0.0001151206 909.0 (m) DEBRIS

Associated space launch

The JAWSAT (Joint Air Force Academy / Weber State University Satellite) project was developed by students working alongside aerospace professionals. Initially designed with a pulsed-plasma thruster to train Air Force Academy cadets (see JAWSAT), the mission has since evolved to include the efforts of several universities, local aerospace companies, the Air Force Academy, the Air Force Research Laboratory, and NASA. Utilizing breakthrough technologies, JAWSAT deployed four satellites when it reached orbit. The onboard imaging system recorded the deployment of each payload with its six digital cameras. The first free-flying Academy satellite, FalconSat-1 carried the CHAWS (Charging Hazards and Wake Studies) experiment developed by the Physics Department at the Academy.

PICOSAT 1&2 (TETHERED) was lifted into orbit during the mission ‘Minotaur I | JAWSAT & FalconSat 1’, on board a Minotaur I space rocket.

The launch took place on Jan. 27, 2000, 3:03 a.m. from Space Launch Complex 8.

For more information about the launch, click the button.

Launch to space Minotaur I | JAWSAT & FalconSat 1
Minotaur I | JAWSAT & FalconSat 1

Agency: N/A

Status: Launch Successful

Launch date: Jan. 27, 2000, 3:03 a.m. UTC

Rocket: Minotaur I

Launch pad: Space Launch Complex 8

Location: Vandenberg SFB, CA, USA

...

Latest news about this satellite

There are no fresh news available about this satellite. Check back as we update our databases every day.


Newsletter sign-up

Weekly statistics, charts and insights to help you stay on top of the space industry.